Regional Weather Roundup
Issued by NWS Charleston, WV

Home | Current Version | Previous Version | Graphics & Text | Print | Product List | Glossary On
Versions: 1 2 3 4 5 6 7 8 9 10 11 12 13 14 15 16 17 18 19 20 21 22 23 24 25 26 27 28 29 30 31 32 33 34 35 36 37 38 39 40 41 42 43 44 45 46 47 48 49 50
697
ASUS41 KRLX 132210
RWRRLX
West Virginia Regional Weather Roundup
National Weather Service Charleston WV
500 PM EST SAT FEB 13 2016

Note: "fair" indicates few or no clouds below 12,000 feet with no
significant weather and/or obstructions to visibility.

WVZ003-132300-
Northern Panhandle of West Virginia

CITY           SKY/WX    TMP DP  RH WIND       PRES   REMARKS
WHEELING       CLOUDY    11  -4  51 NW12G22   30.39R WCI  -3
$$

WVZ009-132300-
Northwest West Virginia

CITY           SKY/WX    TMP DP  RH WIND       PRES   REMARKS
PARKERSBURG      N/A     16  -4  41 W13G20    30.48S WCI   2
$$

WVZ006-132300-
Western West Virginia

CITY           SKY/WX    TMP DP  RH WIND       PRES   REMARKS
HUNTINGTON       N/A     21  -4  33 N8        30.47R
$$

WVZ015-132300-
West Central West Virginia

CITY           SKY/WX    TMP DP  RH WIND       PRES   REMARKS
CHARLESTON       N/A     19  -4  36 NW13G20   30.44R WCI   6
$$

WVZ022-031-132300-
North Central West Virginia

CITY           SKY/WX    TMP DP  RH WIND       PRES   REMARKS
CLARKSBURG     MOCLDY    23  -7  26 NW16G22   30.37R WCI  10
MORGANTOWN     NOT AVBL
$$

WVZ025-035-042-045-132300-
Southern West Virginia

CITY           SKY/WX    TMP DP  RH WIND       PRES   REMARKS
BECKLEY          N/A     12  -5  46 NW16G22   30.27R WCI  -5
LOGAN            N/A     18   0  45 VRB7      30.37S WCI   8
BLUEFIELD        N/A     11  -4  51 NW9G23    30.25R WCI  -2
LEWISBURG        N/A     17  -6  36 NW10G18   30.26R WCI   4
$$

WVZ047-132300-
Northern Mountains of West Virginia

CITY           SKY/WX    TMP DP  RH WIND       PRES   REMARKS
ELKINS           N/A     10  -9  42 NW16G22   30.29R WCI  -7
$$

WVZ052-132300-
Eastern Panhandle of West Virginia

CITY           SKY/WX    TMP DP  RH WIND       PRES   REMARKS
MARTINSBURG    CLOUDY    15  -7  37 NW17G28   30.33R WCI  -1
PETERSBURG     CLOUDY    15  -4  42 CALM      30.36R
$$




USA.gov is the U.S. government's official web portal to all federal, state and local government web resources and services.